Theta_e
315 318 320 321 323 321 322 320 318 319 339 341 350 349 356 357 362 368 359 357 359 359 353 346 343 338 337 339 341 341 341 336 326 324 328 330 330 331 330 333 341 343 341 338 338 338 339 340 342
318 320 319 321 322 324 322 318 320 318 318 318 336 350 357 360 351 353 356 360 361 360 356 352 344 339 335 335 340 340 339 335 327 326 328 330 330 332 332 333 337 340 340 339 338 337 340 340 342
317 317 322 323 321 323 320 318 318 317 319 319 339 339 347 348 347 353 363 360 359 359 357 352 344 340 336 333 335 340 339 337 333 332 333 331 330 332 333 334 337 338 334 331 332 336 340 340 338
316 318 318 319 319 318 317 318 317 321 329 328 334 345 347 352 353 361 363 362 358 355 356 349 345 342 338 334 331 333 339 339 338 339 340 336 331 332 333 336 336 337 330 326 328 334 338 339 337
312 317 321 321 319 318 317 316 316 323 321 335 340 343 345 341 356 361 362 361 360 355 355 353 346 344 340 336 332 330 331 337 340 340 340 338 334 333 334 337 337 334 326 325 326 326 329 331 329
316 316 320 320 316 316 317 316 317 318 320 322 334 341 333 328 352 357 359 360 359 358 356 357 348 346 343 338 333 330 328 331 337 340 340 339 336 334 334 337 338 336 330 327 328 328 328 328 328
315 317 317 317 317 318 317 316 318 317 319 319 317 325 319 319 332 358 357 360 359 359 358 358 356 352 346 342 337 333 330 329 332 336 338 339 338 335 334 337 338 335 334 335 335 333 330 328 327
312 315 314 316 317 317 317 317 316 317 318 317 317 318 319 318 335 355 357 359 359 358 358 357 354 356 352 354 342 337 333 331 330 332 332 336 338 336 335 337 338 338 337 336 335 336 334 328 325
309 317 318 317 318 318 318 318 318 316 317 317 317 317 317 317 321 342 350 357 360 359 358 357 356 353 354 354 353 344 337 334 332 331 329 330 343 343 343 342 343 340 339 337 335 336 333 326 325
316 319 317 315 316 318 318 317 317 317 317 317 318 317 315 316 317 318 321 335 346 354 359 358 356 354 353 352 353 354 351 349 347 346 345 342 343 344 344 343 337 337 338 337 336 337 333 328 334
316 318 315 316 316 316 317 317 315 316 317 315 316 316 316 316 317 317 316 317 318 329 350 358 358 355 354 353 354 353 352 352 350 349 347 346 344 343 341 342 342 344 341 343 342 344 340 338 335
318 316 316 317 316 316 318 316 316 316 316 314 314 315 316 317 317 316 316 315 316 316 317 335 356 358 354 354 356 354 351 351 351 349 348 347 345 344 343 343 342 344 343 344 345 344 341 338 330
318 317 316 316 315 315 315 315 315 316 315 313 314 316 316 317 317 316 316 316 316 316 316 315 320 350 355 355 357 355 353 351 351 350 347 347 344 344 343 343 343 343 343 343 344 344 341 338 333
316 316 317 316 316 315 315 315 315 316 314 316 316 317 316 316 315 315 317 317 318 317 317 316 315 320 350 355 356 356 355 354 353 352 351 349 344 344 343 343 343 342 343 342 343 343 341 339 335
316 318 317 317 316 315 313 316 316 314 314 316 316 316 316 316 315 317 318 319 319 319 317 318 317 315 326 338 350 356 355 355 354 353 352 350 347 344 343 343 342 342 342 343 344 344 341 340 337
316 316 317 318 315 314 315 317 317 314 315 316 317 316 315 318 319 319 320 320 321 320 318 318 317 317 323 338 341 352 354 355 354 353 352 350 348 345 347 345 343 342 342 343 343 342 341 341 340
317 318 318 318 316 315 315 317 317 315 315 317 318 315 319 320 321 321 320 321 321 321 321 321 319 317 317 329 340 349 353 354 353 353 351 350 349 347 347 346 344 344 342 342 342 342 341 340 342
319 319 318 318 317 315 316 316 316 315 315 316 317 315 320 320 321 320 320 319 319 319 320 322 323 319 316 320 340 349 349 354 352 351 351 350 350 348 346 346 345 344 342 342 342 342 342 343 345
317 317 318 317 316 315 315 315 315 314 313 314 316 318 320 320 320 319 318 317 317 317 316 316 319 321 316 323 337 343 346 349 349 348 347 351 349 349 347 345 344 343 344 343 343 344 345 344 342
317 318 319 316 315 315 315 315 314 314 314 314 315 320 320 320 321 319 317 316 315 315 314 313 313 314 323 318 332 339 342 344 346 345 349 352 351 350 349 345 345 342 342 344 344 345 344 345 342
318 318 317 316 316 315 314 313 313 314 314 316 319 320 320 320 319 318 316 315 314 313 313 312 313 311 315 324 322 338 344 345 346 346 347 349 349 349 348 347 348 344 342 343 344 344 345 344 343
319 315 315 316 317 315 313 312 314 314 317 317 319 320 320 320 318 317 316 315 314 312 311 311 311 311 311 315 325 329 337 339 340 342 343 345 346 347 349 348 347 346 346 344 344 343 344 345 345
318 315 316 316 316 314 314 315 315 314 316 317 319 320 321 319 318 317 315 313 312 312 311 310 310 310 312 312 317 326 331 335 337 340 343 346 346 347 348 349 349 348 347 345 345 343 343 344 345
314 316 317 312 314 317 316 319 317 315 315 317 320 321 320 319 317 316 314 313 312 312 311 310 310 311 311 312 314 319 326 330 336 339 341 342 343 345 346 348 349 348 348 346 345 344 343 343 344
317 318 320 317 319 314 317 316 315 315 315 316 317 319 320 319 316 315 314 313 312 311 310 310 310 310 310 311 312 315 319 327 332 335 338 341 342 343 343 346 347 347 347 347 346 344 343 342 343
317 317 320 321 316 315 314 316 316 318 317 317 318 319 319 318 316 315 314 313 312 311 310 309 309 309 310 311 311 313 318 324 329 333 334 337 339 340 344 342 344 344 342 344 343 343 342 340 340
316 318 315 322 317 320 316 316 317 316 316 317 319 315 316 317 316 314 313 313 311 311 310 308 308 309 310 310 311 313 316 321 328 332 336 335 337 339 341 335 330 337 342 345 343 342 341 340 337
316 316 321 321 323 321 315 316 316 315 316 315 315 315 316 316 314 313 314 312 311 310 308 307 308 308 309 310 310 312 313 318 326 332 337 337 337 338 339 340 340 342 343 341 340 339 341 337 335
315 317 317 318 321 323 319 316 315 315 315 316 316 315 316 315 314 314 312 311 309 308 308 308 308 308 308 309 310 311 313 315 324 332 337 337 339 339 339 340 340 340 342 342 339 338 335 334 333
315 317 318 324 319 320 321 321 315 316 316 316 316 316 315 314 314 313 311 309 308 307 307 307 307 307 308 309 309 310 311 313 320 329 335 337 340 339 339 341 339 341 340 341 339 335 334 330 329
Wind_Speed
5 2 4 2 3 1 4 6 4 10 2 4 4 2 8 8 5 3 3 7 4 18 19 20 18 19 19 18 21 26 28 27 28 30 30 29 29 28 27 25 22 20 19 18 18 16 17 15 13
5 1 2 1 1 3 3 9 11 7 7 11 0 3 6 6 5 3 2 4 8 18 18 18 19 17 18 18 20 23 25 25 27 28 28 28 27 27 25 24 22 19 18 17 17 16 15 14 12
2 1 1 3 2 4 4 10 11 7 5 3 2 5 3 4 5 4 4 7 11 16 15 16 18 16 16 18 19 21 23 24 25 25 26 26 26 25 24 23 21 18 17 17 16 16 15 13 11
1 2 3 6 13 5 5 9 11 6 5 9 3 7 4 7 6 9 5 6 10 14 13 15 16 15 14 16 18 20 22 23 23 24 24 24 24 24 23 22 20 17 17 17 16 15 14 12 10
5 1 4 5 5 1 2 5 8 13 3 8 2 8 6 7 8 8 6 4 5 12 13 14 16 16 15 15 16 18 20 21 22 23 23 22 22 23 23 21 18 16 16 16 14 13 12 10 9
3 1 4 6 4 1 4 8 7 10 12 10 9 7 6 5 11 9 6 6 5 6 9 10 12 14 15 15 15 16 17 19 21 22 22 21 21 22 22 21 18 16 15 14 13 12 11 10 8
4 3 4 7 5 5 8 10 10 7 13 12 3 5 3 10 8 5 5 4 4 5 6 7 8 10 13 14 15 15 16 17 19 20 21 21 22 23 23 21 18 16 15 13 12 11 10 9 8
3 3 4 3 4 5 7 8 5 7 8 6 4 5 4 7 6 3 2 1 2 3 5 7 9 9 10 11 15 15 15 16 17 18 19 20 21 22 23 21 18 16 15 13 11 10 9 8 7
1 4 6 3 3 3 5 6 5 4 6 5 6 6 9 10 6 5 4 0 2 4 6 8 9 12 11 11 12 15 16 16 16 17 19 19 16 18 18 19 18 17 15 13 11 9 8 8 7
5 4 3 2 3 3 5 4 5 4 9 7 10 12 12 11 9 8 8 9 7 8 9 10 11 12 12 13 12 14 13 14 15 15 16 17 16 16 17 17 19 18 16 14 12 11 9 8 6
4 4 3 2 3 2 2 2 3 2 5 4 6 10 11 12 11 11 12 11 13 13 12 12 14 14 14 15 14 14 15 15 16 17 16 16 15 15 17 16 16 15 17 12 12 10 9 8 7
5 2 1 1 1 2 3 0 3 2 3 1 2 4 5 9 8 8 10 13 13 15 17 14 14 16 18 15 17 16 18 17 17 19 19 17 16 15 16 17 17 16 16 14 13 11 9 8 8
7 6 5 7 4 4 2 3 1 4 2 3 4 3 7 8 11 8 8 10 13 14 16 17 17 19 19 21 19 17 19 20 19 19 22 22 19 17 17 17 17 17 17 16 14 12 9 9 8
3 4 6 2 2 2 2 2 3 3 2 5 7 8 8 8 9 13 14 16 15 19 21 20 19 19 18 26 24 20 19 19 19 20 21 24 25 19 17 17 17 18 17 16 15 12 10 8 8
1 1 3 3 5 2 2 4 5 1 2 6 7 8 8 8 10 13 16 17 19 21 24 24 21 18 20 25 24 23 21 19 20 21 20 23 23 28 20 18 18 18 16 17 15 13 11 10 8
3 1 6 7 6 1 5 10 12 2 5 9 10 8 7 9 11 11 14 16 19 20 22 26 23 21 20 23 26 25 24 22 21 20 19 22 23 26 28 19 18 16 16 16 16 15 13 12 10
5 6 9 7 7 5 3 12 12 9 11 12 14 7 4 7 10 13 14 16 18 17 19 22 23 24 20 23 24 25 24 24 21 20 21 23 22 24 29 22 19 17 16 16 16 15 14 13 11
5 5 4 10 5 5 13 14 14 16 15 17 16 6 1 4 8 10 13 16 18 20 20 21 24 20 22 19 21 22 23 27 24 25 25 27 27 26 30 26 19 18 16 16 16 16 14 13 10
5 5 8 8 6 10 15 17 19 19 17 16 10 4 3 3 5 8 11 14 17 22 26 29 29 34 18 13 18 20 24 26 26 25 28 26 24 24 27 28 28 24 20 19 18 16 15 13 11
5 6 10 7 7 11 18 23 18 14 12 6 5 3 2 1 4 8 12 14 17 18 21 28 30 34 28 13 17 18 19 24 27 24 24 26 23 22 24 23 31 31 25 19 21 19 15 16 16
4 6 3 8 13 13 12 16 2 2 6 4 3 2 2 2 4 6 9 12 14 19 21 23 25 31 29 28 13 16 17 15 14 20 21 28 27 25 26 25 23 26 30 26 24 23 23 18 17
7 3 6 11 13 12 4 9 3 4 7 7 3 4 3 2 1 4 9 13 14 16 19 23 24 25 26 27 18 13 19 21 23 23 26 28 31 30 27 26 24 23 23 30 29 27 24 23 18
4 5 9 12 13 5 5 6 0 3 8 7 6 5 4 2 4 6 8 12 13 16 18 22 25 28 26 29 23 16 15 21 22 22 22 22 23 29 28 25 23 23 22 25 28 29 24 24 23
3 6 11 1 2 5 4 2 5 4 4 5 4 5 5 5 5 5 8 14 17 20 22 27 28 24 26 26 25 18 16 16 21 23 23 22 22 21 24 25 23 22 21 22 25 34 33 31 26
3 8 5 3 2 5 6 7 11 12 12 14 12 10 7 7 6 7 9 14 19 23 24 26 28 30 29 29 26 23 20 18 18 23 24 23 20 20 21 20 22 22 23 23 22 28 29 29 24
3 2 2 6 5 13 12 9 4 4 4 4 5 5 8 10 8 8 10 14 17 19 21 26 29 29 28 24 24 24 23 18 18 17 22 24 24 23 19 19 18 19 20 23 25 24 28 23 25
4 5 2 4 4 5 5 6 10 15 12 7 10 8 8 9 10 10 14 16 18 21 23 24 23 25 25 25 23 21 22 21 20 18 18 23 24 22 20 22 20 20 21 22 23 26 26 26 28
6 7 3 2 4 7 10 13 12 9 9 10 13 14 5 11 8 9 13 18 21 24 24 25 23 25 24 24 23 23 24 22 20 19 19 21 22 24 25 23 22 19 20 19 21 26 25 26 31
5 4 4 4 5 5 11 9 4 10 13 14 14 9 13 10 9 12 15 22 24 24 26 25 25 25 24 22 22 23 24 24 19 18 19 19 19 22 24 24 22 19 19 21 25 29 25 26 31
10 14 14 6 8 7 12 18 13 14 10 10 14 17 11 10 13 14 19 24 24 25 26 25 25 25 24 24 24 23 23 23 20 17 17 18 17 19 20 20 16 16 19 23 31 31 28 27 23
Wind_Direction
340 2 120 167 215 97 68 13 298 313 128 35 359 351 76 46 24 48 49 145 156 163 163 170 165 164 164 160 161 169 170 168 164 163 164 164 165 164 163 162 157 152 152 154 154 152 146 143 137
9 91 96 90 229 134 84 347 339 319 300 313 90 54 49 68 31 75 94 132 139 154 159 166 170 167 166 164 163 170 173 171 168 167 168 170 170 168 167 167 167 162 161 164 162 160 154 149 143
357 58 86 73 63 93 77 4 337 335 337 280 124 52 41 21 30 39 66 132 137 148 155 165 170 172 169 169 170 171 179 177 174 174 173 175 176 174 172 173 175 172 168 167 165 164 163 158 152
241 123 83 88 92 75 68 7 348 4 39 25 12 71 86 26 4 14 66 115 147 155 159 171 175 178 177 176 177 180 181 184 184 185 182 181 182 179 179 178 177 178 172 169 168 170 173 171 167
38 49 82 93 83 67 330 338 343 39 43 30 359 100 79 22 22 41 45 65 137 160 168 178 184 184 185 186 184 187 188 190 189 191 191 191 189 187 184 183 181 180 174 174 173 173 177 182 179
81 29 109 118 96 5 4 354 357 40 40 27 63 84 58 1 24 23 43 62 110 161 173 183 196 194 192 195 194 191 193 195 198 199 200 201 198 195 191 188 187 185 181 178 177 181 182 190 190
84 66 92 114 106 73 8 342 22 9 31 29 350 76 51 31 13 21 30 55 104 158 182 193 196 205 205 206 208 202 199 198 203 205 206 206 203 200 197 194 193 190 187 184 182 186 190 201 202
80 82 111 38 100 57 3 350 335 17 30 330 349 53 42 5 1 15 28 49 114 179 202 211 213 211 216 215 217 216 211 206 204 206 206 207 207 202 199 200 201 197 192 196 196 198 200 208 211
152 80 101 102 102 57 0 4 351 343 1 33 14 26 339 343 5 353 351 328 236 248 229 227 225 227 222 223 224 221 220 216 212 208 208 207 199 203 204 204 210 207 207 211 213 211 214 216 217
40 86 81 41 103 16 321 318 342 349 23 26 43 32 6 1 10 7 347 321 301 275 255 240 242 239 231 230 225 221 220 214 210 209 206 201 204 201 202 209 216 216 217 221 223 223 221 222 218
35 60 136 168 228 307 259 265 335 354 53 35 22 13 27 29 26 9 360 333 311 299 280 255 246 244 233 230 224 221 216 217 216 212 208 207 206 207 208 212 215 218 222 222 227 225 223 222 222
102 40 259 317 199 295 246 271 119 101 117 214 289 331 3 20 18 12 355 343 338 322 295 283 257 245 239 231 229 225 221 219 217 213 209 207 209 211 210 212 210 212 215 215 218 222 224 229 234
45 1 331 313 298 235 250 353 116 221 205 253 285 337 6 355 349 353 333 332 326 318 311 304 288 254 244 240 233 226 224 221 224 220 216 207 210 216 214 216 213 214 213 215 217 223 228 236 240
344 329 331 340 2 295 229 332 196 232 262 322 339 338 343 344 341 331 340 331 325 317 314 311 301 274 251 251 242 235 229 226 222 225 223 217 216 210 220 216 219 217 215 216 217 223 230 233 236
15 20 19 15 8 19 298 218 270 94 298 300 304 315 325 328 334 335 331 326 323 311 305 304 301 290 260 249 244 237 236 231 227 225 224 220 219 226 217 219 220 222 220 215 217 222 230 234 236
37 72 348 356 341 65 332 301 307 2 314 303 303 300 319 333 339 345 340 338 335 326 316 303 298 290 268 248 246 235 233 229 231 229 225 222 222 225 225 224 226 221 219 218 220 223 224 230 228
35 331 331 324 354 340 353 304 305 295 301 293 295 306 341 5 15 5 4 358 353 354 349 335 309 291 277 255 245 239 234 229 231 229 226 223 221 222 234 227 226 221 220 220 222 224 224 228 227
319 306 295 304 336 335 306 293 300 295 284 282 280 288 345 8 21 16 23 21 16 11 7 2 356 318 287 261 246 238 232 233 230 230 232 239 230 225 234 229 223 218 219 224 223 221 223 222 224
226 238 271 295 303 320 301 297 296 296 287 281 289 231 13 333 15 32 30 22 19 18 13 12 8 6 327 268 234 230 224 224 228 228 232 227 226 221 228 232 231 228 218 219 224 222 217 213 195
231 275 301 288 297 313 305 297 301 288 272 294 281 211 315 336 13 20 18 23 19 12 13 11 7 6 1 307 248 237 236 232 227 230 229 223 223 218 219 220 227 228 223 219 217 213 215 214 194
250 269 259 297 317 287 288 289 258 271 266 233 200 212 205 338 355 358 11 15 16 10 1 2 3 2 357 356 292 252 247 243 232 225 227 227 224 222 222 222 221 226 230 222 221 213 211 211 201
282 198 286 288 312 307 356 298 261 265 264 276 211 206 217 217 318 340 359 5 3 5 359 354 352 355 353 355 349 284 257 250 241 237 236 229 225 226 224 223 219 220 221 224 222 223 216 211 208
306 311 294 293 287 278 202 253 130 285 268 283 235 248 232 234 310 330 353 357 356 355 356 354 345 347 347 350 348 341 285 266 259 251 246 238 237 228 220 219 218 216 221 228 224 225 226 220 214
328 301 291 171 238 246 141 246 265 249 261 265 236 236 256 240 271 311 343 346 344 347 348 348 348 343 341 340 335 330 318 288 262 252 250 245 237 234 231 216 216 218 220 228 230 236 233 226 220
317 329 316 282 245 292 163 287 271 281 269 268 277 278 268 253 278 311 329 338 336 337 337 339 341 335 339 336 324 322 318 304 277 255 249 245 234 228 228 231 221 214 225 228 230 230 232 229 228
290 259 264 291 292 297 273 250 241 243 272 280 259 258 269 256 274 294 313 325 322 320 323 333 331 327 325 327 322 316 314 305 297 273 248 238 236 229 217 213 217 231 227 225 227 225 226 219 217
155 220 349 271 267 268 240 256 271 272 259 248 242 301 280 280 272 286 310 314 310 312 321 325 319 317 318 320 317 311 308 305 298 285 257 239 230 228 211 206 205 217 223 220 222 216 217 220 198
246 151 212 214 270 261 268 268 270 282 261 290 299 310 310 323 298 299 305 315 315 317 321 321 319 317 314 315 313 309 308 308 297 292 256 240 230 222 207 201 198 203 211 212 212 205 212 200 190
230 219 210 275 232 264 290 273 224 287 295 296 308 320 325 324 318 315 316 319 321 320 321 318 316 313 311 312 309 308 311 311 303 292 263 244 235 221 205 200 197 197 205 208 201 202 182 180 183
259 262 251 236 238 233 275 276 290 281 286 323 308 310 324 318 316 316 320 321 319 316 318 312 312 310 308 310 310 305 305 312 305 284 268 242 229 219 215 208 193 197 205 207 198 194 188 182 167